Weather Roundup
Issued by NWS Springfield, MO

Home | Current Version | Previous Version | Text Only | Print | Product List | Glossary On
Versions: 1 2 3 4 5 6 7 8 9 10 11 12 13 14 15 16 17 18 19 20 21 22 23 24 25 26 27 28 29 30 31 32 33 34 35 36 37 38 39 40 41 42 43 44 45 46 47 48 49 50
864
NZUS99 KSGF 290207
HRRSGF

HOURLY WEATHER
NATIONAL WEATHER SERVICE SPRINGFIELD MO
900 PM CDT SAT MAY 28 2016

......SGF CWA......

CITY           SKY/WX    TMP DP  RH WIND       PRES   REMARKS
SPRINGFIELD    CLEAR     72  62  71 W7        29.99R
JOPLIN         CLEAR     69  63  81 S6        29.99R
WEST PLAINS    PTCLDY    73  65  75 S6        30.02S
ROLLA          CLOUDY    69  64  84 SE7       30.00R
BRANSON        PTCLDY    75  64  69 W5        30.02R

......SURROUNDING SGF CWA......

CITY           SKY/WX    TMP DP  RH WIND       PRES   REMARKS
CHANUTE        CLEAR     71  63  75 S5        29.97R
PARSONS        CLEAR     68  63  84 CALM      29.98R
COFFEYVILLE    CLEAR     72  63  73 S3        29.97R
EMPORIA        CLEAR     70  61  73 SW3       29.97R
GROVE OK       CLEAR     72  66  83 CALM      30.00S
ROGERS AR        N/A     72  64  76 CALM      30.02R
SILOAM SPRINGS CLEAR     72  59  64 CALM      30.02R
HARRISON AR    CLEAR     72  65  78 S7        30.02R
NEAR YELLVILLE CLEAR    N/A N/A N/A S5        29.98R

......KANSAS AND MISSOURI......

CITY           SKY/WX    TMP DP  RH WIND       PRES   REMARKS
KANSAS CTY INT PTCLDY    68  60  75 SW5       29.95R
DOWNTOWN KC    CLEAR     73  58  59 SW5       29.94R
COLUMBIA       CLOUDY    72  63  73 SW5       29.97R
SEDALIA        CLEAR     73  62  68 W6        29.97R
ST JOSEPH      CLEAR     71  60  68 SW6       29.93R
ST LOUIS       MOCLDY    79  66  64 S13G20    29.95R
SPIRIT OF STL  CLOUDY    77  69  76 SW5       29.94R
KIRKSVILLE     CLEAR     69  58  67 SW5       29.94R
WICHITA        CLEAR     76  57  51 NW3       29.97R
TOPEKA         CLEAR     72  58  61 SW3       29.95R
OLATHE         CLEAR     70  59  68 SW3       29.97R

......TENNESSEE......

CITY           SKY/WX    TMP DP  RH WIND       PRES   REMARKS
MEMPHIS        CLOUDY    79  69  71 S9        30.03S
NASHVILLE      CLOUDY    75  61  61 CALM      30.08F

......ARKANSAS.......

CITY           SKY/WX    TMP DP  RH WIND       PRES   REMARKS
FAYETTEVILLE   CLEAR     69  66  90 S3        30.01R
FT SMITH       CLEAR     75  64  68 E5        29.97R
LITTLE ROCK    CLEAR     75  67  76 S5        30.00S

......OKLAHOMA.......

CITY           SKY/WX    TMP DP  RH WIND       PRES   REMARKS
TULSA          CLEAR     77  65  66 S5        29.96R
PONCA CITY     CLEAR     76  60  57 SE6       29.96R
MCALESTER      PTCLDY    75  68  78 SE3       29.99R
OKLAHOMA CITY  CLEAR     71  64  78 SE7       29.98R

......IOWA............

CITY           SKY/WX    TMP DP  RH WIND       PRES   REMARKS
DES MOINES     PTCLDY    69  57  65 SW12      29.85S
QUAD CITIES    CLOUDY    75  58  55 W17       29.87R

......ILLINOIS........

CITY           SKY/WX    TMP DP  RH WIND       PRES   REMARKS
QUINCY         CLOUDY    74  60  61 SW9       29.92R
CHICAGO        MOCLDY    77  63  61 S20G26    29.87F




USA.gov is the U.S. government's official web portal to all federal, state and local government web resources and services.